TimeCST,TemperatureF,Dew PointF,Humidity,Sea Level PressureIn,VisibilityMPH,Wind Direction,Wind SpeedMPH,Gust SpeedMPH,PrecipitationIn,Events,Conditions,WindDirDegrees,DateUTC
12:54 AM,23.0,17.1,78,30.11,10.0,SSE,6.9,-,N/A,,Clear,160,2013-01-07 06:54:00
1:54 AM,26.1,19.9,78,30.08,10.0,South,16.1,-,N/A,,Clear,170,2013-01-07 07:54:00
2:54 AM,30.0,21.9,72,30.06,10.0,South,20.7,27.6,N/A,,Clear,170,2013-01-07 08:54:00
3:54 AM,30.9,21.9,69,30.03,10.0,South,25.3,-,N/A,,Clear,170,2013-01-07 09:54:00
4:54 AM,32.0,23.0,69,30.01,10.0,South,21.9,-,N/A,,Clear,170,2013-01-07 10:54:00
5:54 AM,30.0,21.9,72,30.01,10.0,South,16.1,-,N/A,,Clear,170,2013-01-07 11:54:00
6:54 AM,28.9,21.0,72,30.02,10.0,South,15.0,-,N/A,,Clear,180,2013-01-07 12:54:00
7:54 AM,25.0,19.0,78,30.04,10.0,South,9.2,-,N/A,,Clear,190,2013-01-07 13:54:00
8:54 AM,28.9,21.9,75,30.04,10.0,South,10.4,-,N/A,,Clear,190,2013-01-07 14:54:00
9:54 AM,30.0,24.1,79,30.06,10.0,SW,3.5,-,N/A,,Clear,220,2013-01-07 15:54:00
10:54 AM,28.0,24.1,85,30.05,10.0,South,5.8,-,N/A,,Clear,180,2013-01-07 16:54:00
11:54 AM,33.1,26.1,75,30.04,10.0,Calm,Calm,-,N/A,,Clear,0,2013-01-07 17:54:00
1:54 PM,35.1,27.0,72,30.02,10.0,WSW,5.8,-,N/A,,Clear,250,2013-01-07 19:54:00
2:54 PM,34.0,28.0,79,30.01,10.0,West,5.8,-,N/A,,Clear,260,2013-01-07 20:54:00
3:54 PM,33.1,27.0,78,30.01,9.0,SSW,3.5,-,N/A,,Clear,210,2013-01-07 21:54:00
6:33 PM,21.2,19.4,93,30.00,1.8,Calm,Calm,-,N/A,,Clear,0,2013-01-08 00:33:00
6:45 PM,21.2,17.6,86,30.01,0.2,Calm,Calm,-,N/A,Fog,Light Freezing Fog,0,2013-01-08 00:45:00
6:54 PM,21.9,19.0,89,30.04,3.0,NNW,4.6,-,N/A,,Clear,340,2013-01-08 00:54:00
7:54 PM,19.0,16.0,88,30.03,3.0,Calm,Calm,-,N/A,,Clear,0,2013-01-08 01:54:00
8:28 PM,17.6,15.8,93,30.00,1.8,WNW,3.5,-,N/A,,Clear,290,2013-01-08 02:28:00
8:36 PM,15.8,15.8,100,29.99,3.0,West,3.5,-,N/A,,Clear,280,2013-01-08 02:36:00
8:54 PM,16.0,12.9,88,30.02,2.5,Calm,Calm,-,N/A,,Clear,0,2013-01-08 02:54:00
9:24 PM,14.0,10.4,86,29.99,3.0,Calm,Calm,-,N/A,,Clear,0,2013-01-08 03:24:00
9:38 PM,15.8,10.4,79,29.99,1.5,Calm,Calm,-,N/A,,Clear,0,2013-01-08 03:38:00
9:46 PM,15.8,12.2,86,29.98,0.2,Calm,Calm,-,N/A,Fog,Light Freezing Fog,0,2013-01-08 03:46:00
9:54 PM,15.1,12.0,88,30.01,0.2,Calm,Calm,-,N/A,Fog,Light Freezing Fog,0,2013-01-08 03:54:00
10:08 PM,12.2,8.6,85,29.98,1.2,Calm,Calm,-,N/A,,Partly Cloudy,0,2013-01-08 04:08:00
10:10 PM,12.2,8.6,85,29.98,0.8,Calm,Calm,-,N/A,,Mist,0,2013-01-08 04:10:00
10:20 PM,12.2,8.6,85,29.98,1.5,Calm,Calm,-,N/A,,Scattered Clouds,0,2013-01-08 04:20:00
10:24 PM,14.0,10.4,86,29.97,0.8,Calm,Calm,-,N/A,,Mist,0,2013-01-08 04:24:00
10:54 PM,12.9,9.0,84,30.00,0.2,Calm,Calm,-,N/A,Fog,Light Freezing Fog,0,2013-01-08 04:54:00
11:35 PM,14.0,8.6,79,29.97,1.2,North,5.8,-,N/A,,Haze,350,2013-01-08 05:35:00
11:41 PM,14.0,8.6,79,29.97,2.0,NNW,5.8,-,N/A,,Haze,330,2013-01-08 05:41:00
11:51 PM,12.2,8.6,85,29.97,3.0,NW,4.6,-,N/A,,Haze,320,2013-01-08 05:51:00
11:54 PM,12.9,9.0,84,30.00,3.0,NW,3.5,-,N/A,,Partly Cloudy,320,2013-01-08 05:54:00